Regional Weather Roundup
Issued by NWS

Home | Current Version | Previous Version | Graphics & Text | Print | Product List | Glossary On
Versions: 1 2 3 4 5 6 7 8 9 10 11 12 13 14 15 16 17 18 19 20 21 22 23 24 25 26 27 28 29 30 31 32 33 34 35 36 37 38 39 40 41 42 43 44 45 46 47 48 49 50
000
ASUS43 KLOT 241904
RWRIL

ILLINOIS REGIONAL WEATHER ROUNDUP
NATIONAL WEATHER SERVICE CHICAGO/ROMEOVILLE IL
200 PM CDT THU MAY 24 2018

NOTE: "FAIR" INDICATES FEW OR NO CLOUDS BELOW 12,000 FEET WITH NO
SIGNIFICANT WEATHER AND/OR OBSTRUCTIONS TO VISIBILITY.

* THESE STATIONS ARE NOT UNDER NWS QUALITY CONTROL. THEY ALSO MAY NOT
  REPORT WEATHER SUCH AS PRECIPITATION OR FOG.

ILZ001-002-007-009-015-016-024-242000-
NORTHWEST ILLINOIS

CITY           SKY/WX    TMP DP  RH WIND       PRES   REMARKS
MOLINE         FAIR      89  63  41 S9        30.07F HX  90
STERLING*      FAIR      87  59  38 SW7       30.10F HX  86
SAVANNA*       FAIR      87  63  44 SW6       30.09F HX  87
$$

ILZ003-004-008-010-011-017-018-242000-
NORTH CENTRAL ILLINOIS

CITY           SKY/WX    TMP DP  RH WIND       PRES   REMARKS
ROCKFORD       PTSUNNY   83  60  45 S12       30.12F HX  83
FREEPORT*      FAIR      83  61  47 S8        30.13F HX  83
ROCHELLE*      FAIR      85  58  39 SE5       30.12F HX  84
DE KALB*       FAIR      82  61  47 S8        30.14F HX  83
$$

ILZ005-006-012>014-019>023-242000-
NORTHEAST ILLINOIS

CITY           SKY/WX    TMP DP  RH WIND       PRES   REMARKS
CHICAGO-OHARE  PTSUNNY   84  55  36 VRB6      30.11F HX  83
CHICAGO-MIDWAY FAIR      85  54  34 SE8       30.11F HX  83
AURORA         FAIR      85  57  38 VRB3      30.12F HX  84
LANSING*       FAIR      82  59  45 SE3       30.13F HX  82
JOLIET*        FAIR      86  59  40 SE6       30.12F HX  85
WAUKEGAN       FAIR      75  57  53 SE13      30.13F
DUPAGE AIRPORT FAIR      83  58  42 VRB5      30.12F HX  83
KANKAKEE*      FAIR      84  55  36 E8        30.13F HX  83
WHEELING       FAIR      85  55  35 CALM      30.13F HX  83
MORRIS*        FAIR      85  55  34 SE7       30.11F HX  84
NORTHERLY ISL    N/A     67  55  65 E9          N/A
$$

LMZ740>746-242000-
SOUTHERN LAKE MICHIGAN

STATION/POSITION SKY/WX   TEMP    WIND        PRES    VSBY  WAVE
                          AIR SEA DIR/SP/G                  HT/PER
                          (F)     (DEG/KT/KT) (MB)    (MI)  (FT/S)
SOUTHERN BUOY              52 40  150/  8/  8 1021.7F         0
WILMETTE HARBOR            58 53  110/  8/ 10   N/A           1/ 2
HARRISON CRIB              75     110/ 17/ 17   N/A
BURNHAM HARBOR             66      80/  9/ 11   N/A
CALUMET HARBOR             71      70/  8/ 10 1020.2F
BURNS HARBOR               69      30/  9/ 10 1021.0F
MICHIGAN CITY              69      10/  7/  8   N/A
MICHIGAN CITY 6N           65 61   40/  6/  8   N/A           0
ST. JOSEPH                 67 64   30/  2/  4 1021.2F         0
$$

ILZ025>027-034>036-040-047-049-050-058-095>099-242000-
WEST-CENTRAL ILLINOIS

CITY           SKY/WX    TMP DP  RH WIND       PRES   REMARKS
QUINCY         SUNNY     86  59  39 S10       30.09F HX  85
GALESBURG*     FAIR      87  59  38 SW10      30.12S HX  86
MACOMB*        CLOUDY    87  58  37 S9        30.12F HX  86
JACKSONVILLE*  SUNNY     85  58  40 SE6       30.11F HX  84
PITTSFIELD*    SUNNY     87  60  39 SE8       30.11F HX  87
$$

ILZ028>032-037-038-041>044-048-051>054-059>061-242000-
CENTRAL ILLINOIS

CITY           SKY/WX    TMP DP  RH WIND       PRES   REMARKS
BLOOMINGTON    FAIR      87  56  34 S8        30.13F HX  85
DECATUR        FAIR      86  56  35 VRB6      30.11F HX  85
PEORIA         FAIR      86  62  44 S5        30.10F HX  86
LACON*         FAIR      85  60  43 W6        30.10F HX  84
LINCOLN*       FAIR      89  58  34 E5        30.10F HX  87
SPRINGFIELD    FAIR      89  57  33 SE12      30.11F HX  88
TAYLORVILLE    NOT AVBL
$$

ILZ033-039-045-046-055>057-062-063-242000-
EAST-CENTRAL ILLINOIS

CITY           SKY/WX    TMP DP  RH WIND       PRES   REMARKS
CHAMPAIGN      FAIR      86  52  30 MISG      30.13F HX  84
DANVILLE*      FAIR      83  55  38 SE8       30.12F HX  82
RANTOUL*       FAIR      86  54  33 E3        30.14F HX  84
MATTOON        FAIR      82  60  47 VRB6      30.13F HX  82
$$

ILZ079-100>102-242000-
SOUTHWEST ILLINOIS

CITY           SKY/WX    TMP DP  RH WIND       PRES   REMARKS
ALTON          MOSUNNY   86  68  54 SE8       30.11F HX  89
BELLEVILLE     SUNNY     85  65  49 SE7       30.09F HX  87
CAHOKIA*       SUNNY     87  63  44 MISG      30.09F HX  88
SPARTA*        SUNNY     84  65  52 NE5       30.12F HX  85
$$

ILZ064>066-069>071-074>076-080>082-084>086-088>090-092>094-242000-
SOUTH-CENTRAL ILLINOIS

CITY           SKY/WX    TMP DP  RH WIND       PRES   REMARKS
CARBONDALE     FAIR      85  63  47 SE5       30.10F HX  86
CAIRO*         FAIR      85  65  51 E5        30.09F HX  86
EFFINGHAM*     FAIR      86  54  33 SE3       30.13F HX  84
MARION         MOSUNNY   84  61  45 E6        30.11F HX  84
MT. VERNON     FAIR      87  59  38 E10       30.11F HX  86
CENTRALIA*     SUNNY     86  62  43 CALM      30.10F HX  86
SALEM*         FAIR      87  55  32 SE7       30.12F HX  85
METROPOLIS*    FAIR      88  64  43 E3        30.10F HAZE    HX  89
$$

ILZ067-068-072-073-078-083-087-091-242000-
SOUTHEAST ILLINOIS

CITY           SKY/WX    TMP DP  RH WIND       PRES   REMARKS
LAWRENCEVILLE  FAIR      86  49  27 VRB5      30.12F HX  83
FLORA*         FAIR      87  58  37 E6        30.12F HX  86
FAIRFIELD*     FAIR      85  57  37 E7        30.10F HX  84
HARRISBURG*    FAIR      85  63  47 E5        30.11F HX  86
ROBINSON*      FAIR      82  58  43 NE8       30.13F HX  82
CARMI*         FAIR      87  56  34 SE7       30.10F HX  85
$$

ABBREVIATIONS USED IN REMARKS
   TC - TEMPERATURE IN CELSIUS
  WCI - WIND CHILL INDEX
   HX - HEAT INDEX
  VSB - VISIBILITY
$$





USA.gov is the U.S. government's official web portal to all federal, state and local government web resources and services.